{"data":{"norad_id":69259,"epoch":"2026-09-20T02:45:28.078848Z","epoch_age_seconds":60186,"freshness":"FRESH","line1":"1 69259U 26117X   26263.11490832  .00017418  00000+0  52530-3 0  9993","line2":"2 69259  53.1579 155.8465 0001045  62.7086 297.4023 15.34408546 17607","mean_motion":15.34408546,"eccentricity":0.0001045,"inclination_deg":53.1579,"raan_deg":155.8465,"arg_perigee_deg":62.7086,"mean_anomaly_deg":297.4023,"bstar":0.0005253,"rev_number":1760,"period_min":93.84723538942,"perigee_km":461.96297466125,"apogee_km":463.39270496277,"semimajor_km":6840.814839812,"source":"CELESTRAK","updated_at":"2026-09-20T09:00:44.151991Z"}}